Starlink 11410

operational
NORAD ID: 61946 Int'l Des: 2024-209 Owner: SPXS Country: US Constellation: starlink
LEOCIRCULAR

About Starlink 11410

Description loading...

Live Position

Loading 3D Globe...

Upcoming Passes

Altitude History

Altitude vs Time

uPlot chart will show altitude changes over time

Two-Line Element Set

1 61946U 24209H 25352.62143729 .00121984 00000-0 99429-3 0 9995
2 61946 53.1577 51.0125 0001326 131.2346 228.8787 15.69775175 63983
Epoch: Dec 18, 2025 • Age: 10 hours

Current Status

Altitude 365.8 km
Velocity 7.69 km/s
Sub-Earth Point -23.50°S, 145.39°E
Launch Date Nov 14, 2024
Age 1 years
Type internet

Technical Details

Classification Payload
Mass 960.00 kg
Dry Mass 910.00 kg
Total Mass 960.00 kg
Length 0.30 m
Diameter 4.10 m
Span 29.00 m
Shape Box + pan
Manufacturer SPXS
Bus Type Starlink V2MD
Phase Status In Orbit
Owner/State SPXS/US

Large Constellations

Loading constellations...